FW7184 Weather Reports


Display with metric or nautical units.
time (UTC)temp
F
wind
direction
speed
MPH
gust
MPH
rain 1hr
in
rain 24hr
in
rain mn
in
humidity
%
barometer
mb
20260901021702 69 199 0.0 0.0 0.00 0.00 0.00 97 1019.2
20260901021156 69 200 0.0 0.0 0.00 0.00 0.00 97 1019.0
20260901020652 69 197 0.0 0.0 0.00 0.00 0.00 97 1019.1
20260901020148 69 199 0.0 0.0 0.00 0.00 0.00 96 1019.0
20260901015643 69 196 0.0 0.0 0.00 0.00 0.00 96 1019.1
20260901015142 69 196 0.0 0.0 0.00 0.00 0.00 96 1019.0
20260901014637 69 197 0.0 0.0 0.00 0.00 0.00 96 1019.0
20260901014133 69 196 0.0 0.0 0.00 0.00 0.00 96 1019.0
20260901013629 69 191 0.0 0.0 0.00 0.00 0.00 96 1019.2
20260901013125 69 200 0.0 0.0 0.00 0.00 0.00 96 1019.1
20260901012625 69 200 0.0 0.0 0.00 0.00 0.00 96 1019.3
20260901012120 69 198 0.0 0.0 0.00 0.00 0.00 97 1019.3
20260901011616 69 200 0.0 0.0 0.00 0.00 0.00 97 1019.2
20260901011114 69 198 0.0 0.0 0.00 0.00 0.00 97 1019.2
20260901010610 69 199 0.0 0.0 0.00 0.00 0.00 97 1019.1
20260901010109 69 197 0.0 0.0 0.00 0.00 0.00 97 1019.1
20260901005603 69 190 0.0 0.0 0.00 0.00 0.00 97 1019.0
20260901005059 69 199 0.0 0.0 0.00 0.00 0.00 97 1019.1
20260901004558 69 198 0.0 0.0 0.00 0.00 0.00 97 1019.0
20260901004053 69 196 0.0 0.0 0.00 0.00 0.00 97 1018.9
20260901003548 69 189 0.0 0.0 0.00 0.00 0.00 97 1018.9
20260901003046 69 198 0.0 0.0 0.00 0.00 0.00 97 1019.0
20260901002546 69 200 0.0 0.0 0.00 0.00 0.00 96 1019.1
20260901002041 69 200 0.0 0.0 0.00 0.00 0.00 96 1019.0
20260901001536 69 200 0.0 0.0 0.00 0.00 0.00 96 1018.9
20260901001031 70 190 0.0 0.0 0.00 0.00 0.00 96 1019.0
20260901000526 70 190 0.0 0.0 0.00 0.00 0.00 96 1018.8
20260901000022 70 195 0.0 0.0 0.00 0.00 0.00 96 1018.7
20260831235515 70 194 0.0 0.0 0.00 0.00 0.00 96 1018.8
20260831235011 70 188 0.0 0.0 0.00 0.00 0.00 95 1019.0
20260831234505 70 195 0.0 0.0 0.00 0.00 0.00 94 1019.1
20260831234001 70 195 0.0 0.0 0.00 0.00 0.00 94 1019.0
20260831233455 71 195 0.0 0.0 0.00 0.00 0.00 93 1019.1
20260831232951 71 198 0.0 0.0 0.00 0.00 0.00 91 1019.2
20260831232447 71 196 0.0 0.0 0.00 0.00 0.00 91 1019.2
20260831231942 71 196 0.0 0.0 0.00 0.00 0.00 90 1019.2
20260831231439 71 197 0.0 0.0 0.00 0.00 0.00 89 1019.0
20260831230934 72 191 0.0 0.0 0.00 0.00 0.00 88 1019.1
20260831230429 72 195 0.0 0.0 0.00 0.00 0.00 86 1019.1
20260831225923 72 202 0.0 0.0 0.00 0.00 0.00 85 1019.2
20260831225419 73 198 0.0 0.0 0.00 0.00 0.00 85 1019.3
20260831224914 73 200 0.0 0.0 0.00 0.00 0.00 85 1019.2
20260831224413 73 195 0.0 0.0 0.00 0.00 0.00 84 1019.2
20260831223908 73 200 0.0 0.0 0.00 0.00 0.00 84 1019.2
20260831223404 73 194 0.0 0.0 0.00 0.00 0.00 85 1019.5
20260831222900 73 189 0.0 0.0 0.00 0.00 0.00 84 1019.1
20260831222356 73 195 0.0 0.0 0.00 0.00 0.00 84 1019.3
20260831221851 73 194 0.0 0.0 0.00 0.00 0.00 84 1019.6
20260831221347 73 197 0.0 0.0 0.00 0.00 0.00 84 1019.4
20260831220841 73 169 0.0 0.0 0.00 0.00 0.00 84 1019.2
20260831220337 73 193 0.0 0.0 0.00 0.00 0.00 83 1019.2
20260831215832 73 182 0.0 0.0 0.00 0.00 0.00 83 1019.4
20260831215328 73 186 0.0 0.0 0.00 0.00 0.00 82 1019.3
20260831214824 73 186 0.0 0.0 0.00 0.00 0.00 82 1019.3
20260831214321 74 190 0.0 0.0 0.00 0.00 0.00 82 1019.4
20260831213816 74 197 0.0 0.0 0.00 0.00 0.00 81 1019.2
20260831213313 74 137 0.0 0.0 0.00 0.00 0.00 82 1019.3
20260831212808 74 189 0.0 0.0 0.00 0.00 0.00 82 1019.2
20260831212306 74 183 0.0 0.0 0.00 0.00 0.00 82 1019.4
20260831211757 74 193 0.0 0.0 0.00 0.00 0.00 83 1019.1
20260831211252 74 209 0.0 0.0 0.00 0.00 0.00 83 1019.2
20260831210746 74 195 0.0 0.0 0.00 0.00 0.00 82 1019.2
20260831210243 74 195 0.0 0.0 0.00 0.00 0.00 81 1019.4
20260831205742 74 193 0.0 0.0 0.00 0.00 0.00 81 1019.4
20260831205238 74 194 0.0 0.0 0.00 0.00 0.00 81 1019.4
20260831204738 74 195 0.0 0.0 0.00 0.00 0.00 80 1019.3
20260831204237 75 194 0.0 0.0 0.00 0.00 0.00 80 1019.3
20260831203736 75 192 0.0 0.0 0.00 0.00 0.00 80 1019.4
20260831203231 75 194 0.0 0.0 0.00 0.00 0.00 79 1019.1
20260831202729 75 196 0.0 0.0 0.00 0.00 0.00 79 1019.0
20260831202225 75 203 0.0 0.0 0.00 0.00 0.00 79 1019.2
20260831201724 75 193 0.0 0.0 0.00 0.00 0.00 79 1019.5
20260831201218 75 193 0.0 0.0 0.00 0.00 0.00 79 1019.1
20260831200714 75 192 0.0 0.0 0.00 0.00 0.00 78 1019.5
20260831200214 75 193 0.0 0.0 0.00 0.00 0.00 78 1019.4
20260831195710 75 191 0.0 0.0 0.00 0.00 0.00 77 1019.5
20260831195205 75 195 0.0 0.0 0.00 0.00 0.00 76 1019.6
20260831194700 75 167 0.0 0.0 0.00 0.00 0.00 76 1019.5
20260831194155 75 194 0.0 0.0 0.00 0.00 0.00 76 1019.5
20260831193655 75 191 0.0 0.0 0.00 0.00 0.00 76 1019.7
20260831193151 75 193 0.0 0.0 0.00 0.00 0.00 76 1019.9
20260831192646 75 211 0.0 0.0 0.00 0.00 0.00 74 1019.8
20260831192141 76 189 0.0 0.0 0.00 0.00 0.00 72 1019.7
20260831191631 76 217 0.0 1.0 0.00 0.00 0.00 72 1019.9
20260831191127 77 194 0.0 0.0 0.00 0.00 0.00 70 1020.1
20260831190622 78 194 0.0 0.0 0.00 0.00 0.00 73 1020.1
20260831190121 78 199 0.0 0.0 0.00 0.00 0.00 72 1020.1
20260831185616 77 202 0.0 0.0 0.00 0.00 0.00 73 1020.1
20260831185112 77 198 0.0 1.0 0.00 0.00 0.00 72 1020.1
20260831184612 77 200 0.0 0.0 0.00 0.00 0.00 74 1020.2
20260831184108 77 198 0.0 0.0 0.00 0.00 0.00 74 1020.1
20260831183607 77 192 0.0 0.0 0.00 0.00 0.00 71 1020.1
20260831183107 78 216 1.0 1.0 0.00 0.00 0.00 68 1020.6
20260831182606 78 232 0.0 0.0 0.00 0.00 0.00 69 1020.6
20260831182102 78 199 0.0 0.0 0.00 0.00 0.00 68 1020.6
20260831181601 79 194 0.0 0.0 0.00 0.00 0.00 66 1020.2
20260831181056 79 194 0.0 1.0 0.00 0.00 0.00 67 1020.1
20260831180551 78 194 0.0 0.0 0.00 0.00 0.00 68 1020.3
20260831180046 79 182 0.0 0.0 0.00 0.00 0.00 66 1020.3
20260831175541 79 197 1.0 1.0 0.00 0.00 0.00 67 1020.9
20260831175038 78 205 0.0 0.0 0.00 0.00 0.00 66 1020.7
20260831174538 78 196 0.0 0.0 0.00 0.00 0.00 66 1020.7
20260831174038 78 204 0.0 0.0 0.00 0.00 0.00 65 1020.9
20260831173536 78 193 0.0 0.0 0.00 0.00 0.00 65 1021.2
20260831173033 77 186 0.0 0.0 0.00 0.00 0.00 65 1021.0
20260831172528 78 180 0.0 0.0 0.00 0.00 0.00 68 1020.8
20260831172023 77 203 0.0 0.0 0.00 0.00 0.00 69 1021.0
20260831171519 77 203 1.0 1.0 0.00 0.00 0.00 65 1020.7
20260831171015 77 179 0.0 0.0 0.00 0.00 0.00 69 1020.7
20260831170511 77 188 0.0 1.0 0.00 0.00 0.00 69 1020.9
20260831170009 76 202 0.0 0.0 0.00 0.00 0.00 68 1020.9
20260831165503 77 199 0.0 0.0 0.00 0.00 0.00 71 1020.8
20260831165000 77 74 0.0 1.0 0.00 0.00 0.00 71 1020.6
20260831164455 77 199 0.0 0.0 0.00 0.00 0.00 69 1020.7
20260831163950 77 195 0.0 0.0 0.00 0.00 0.00 70 1020.7
20260831163446 77 187 0.0 0.0 0.00 0.00 0.00 71 1021.2
20260831162944 76 205 0.0 0.0 0.00 0.00 0.00 72 1021.0
20260831162440 75 202 0.0 0.0 0.00 0.00 0.00 72 1021.1
20260831161938 75 206 0.0 0.0 0.00 0.00 0.00 75 1021.1
20260831161435 75 213 0.0 0.0 0.00 0.00 0.00 77 1021.1
20260831160931 75 182 0.0 0.0 0.00 0.00 0.00 75 1021.0
20260831160430 75 202 0.0 0.0 0.00 0.00 0.00 79 1021.1
20260831155930 75 194 0.0 0.0 0.00 0.00 0.00 77 1021.0
20260831155425 76 198 0.0 0.0 0.00 0.00 0.00 76 1021.2
20260831154920 76 194 1.0 1.0 0.00 0.00 0.00 77 1021.3
20260831154417 75 200 1.0 1.0 0.00 0.00 0.00 79 1021.4
20260831153914 75 205 0.0 0.0 0.00 0.00 0.00 76 1021.4
20260831153411 74 229 0.0 1.0 0.00 0.00 0.00 81 1021.3
20260831152907 74 205 0.0 0.0 0.00 0.00 0.00 81 1021.1
20260831152402 74 185 0.0 0.0 0.00 0.00 0.00 80 1021.4
20260831151857 73 201 0.0 0.0 0.00 0.00 0.00 80 1021.3
20260831151357 74 187 2.0 2.0 0.00 0.00 0.00 79 1021.3
20260831150852 74 198 0.0 0.0 0.00 0.00 0.00 82 1021.2
20260831150347 73 195 0.0 1.0 0.00 0.00 0.00 82 1021.3
20260831145846 74 198 0.0 0.0 0.00 0.00 0.00 80 1021.3
20260831145343 73 196 0.0 0.0 0.00 0.00 0.00 81 1021.3
20260831144838 73 198 0.0 0.0 0.00 0.00 0.00 80 1021.4
20260831144334 74 224 1.0 1.0 0.00 0.00 0.00 80 1021.2
20260831143829 74 207 0.0 0.0 0.00 0.00 0.00 80 1021.5
20260831143324 73 197 0.0 0.0 0.00 0.00 0.00 83 1021.3
20260831142819 74 293 1.0 1.0 0.00 0.00 0.00 82 1021.3
20260831142314 74 194 1.0 2.0 0.00 0.00 0.00 81 1021.4
20260831141809 73 203 0.0 0.0 0.00 0.00 0.00 84 1021.4
20260831141303 71 203 0.0 0.0 0.00 0.00 0.00 85 1021.4
20260831140803 71 197 0.0 0.0 0.00 0.00 0.00 88 1021.1
20260831140258 70 131 0.0 0.0 0.00 0.00 0.00 89 1021.3
20260831135756 70 241 1.0 1.0 0.00 0.00 0.00 89 1021.2
20260831135252 70 187 1.0 2.0 0.00 0.00 0.00 89 1021.1
20260831134747 68 167 0.0 0.0 0.00 0.00 0.00 93 1021.4
20260831134244 67 273 3.0 3.0 0.00 0.00 0.00 98 1021.0
20260831133743 67 201 0.0 0.0 0.00 0.00 0.00 99 1021.0
20260831133242 66 162 0.0 0.0 0.00 0.00 0.00 99 1021.0
20260831132737 66 165 0.0 0.0 0.00 0.00 0.00 99 1021.3
20260831132232 67 187 0.0 1.0 0.00 0.00 0.00 99 1021.3
20260831131727 66 188 0.0 1.0 0.00 0.00 0.00 99 1021.0
20260831131224 66 174 0.0 1.0 0.00 0.00 0.00 99 1021.2
20260831130718 66 207 1.0 2.0 0.00 0.00 0.00 99 1021.2
20260831130213 66 203 1.0 2.0 0.00 0.00 0.00 99 1020.8
20260831125712 66 232 0.0 1.0 0.00 0.00 0.00 99 1021.1
20260831125208 66 200 0.0 0.0 0.00 0.00 0.00 99 1021.2
20260831124703 65 205 0.0 0.0 0.00 0.00 0.00 99 1021.2
20260831124159 65 221 0.0 0.0 0.00 0.00 0.00 99 1021.2
20260831123659 65 316 1.0 2.0 0.00 0.00 0.00 99 1021.3
20260831123158 65 213 0.0 0.0 0.00 0.00 0.00 99 1021.2
20260831122657 65 204 0.0 0.0 0.00 0.00 0.00 99 1021.3
20260831122153 65 204 0.0 0.0 0.00 0.00 0.00 99 1021.3
20260831121652 65 207 0.0 0.0 0.00 0.00 0.00 99 1021.4
20260831121149 65 206 0.0 0.0 0.00 0.00 0.00 99 1021.0
20260831120645 65 203 0.0 0.0 0.00 0.00 0.00 99 1020.9
20260831120139 65 206 0.0 0.0 0.00 0.00 0.00 99 1021.0
20260831115636 65 198 0.0 0.0 0.00 0.00 0.00 99 1020.9
20260831115131 65 202 0.0 0.0 0.00 0.00 0.00 99 1021.1
20260831114630 64 202 0.0 0.0 0.00 0.00 0.00 99 1021.2
20260831114125 64 203 0.0 0.0 0.00 0.00 0.00 99 1020.9
20260831113624 64 203 0.0 0.0 0.00 0.00 0.00 99 1020.9
20260831113120 64 206 0.0 0.0 0.00 0.00 0.00 99 1020.8
20260831112618 64 201 0.0 0.0 0.00 0.00 0.00 99 1021.0
20260831112113 64 203 0.0 0.0 0.00 0.00 0.00 99 1020.5
20260831111604 64 203 0.0 0.0 0.00 0.00 0.00 99 1020.7
20260831111100 64 202 0.0 0.0 0.00 0.00 0.00 99 1020.7
20260831110555 64 201 0.0 0.0 0.00 0.00 0.00 99 1020.8
20260831110049 63 206 0.0 0.0 0.00 0.00 0.00 99 1020.8
20260831105549 63 208 0.0 0.0 0.00 0.00 0.00 99 1020.5
20260831105043 63 202 0.0 0.0 0.00 0.00 0.00 99 1020.5
20260831104540 64 199 0.0 0.0 0.00 0.00 0.00 99 1020.6
20260831104036 64 200 0.0 0.0 0.00 0.00 0.00 99 1020.2
20260831103531 64 203 0.0 0.0 0.00 0.00 0.00 99 1020.5
20260831103027 64 202 0.0 0.0 0.00 0.00 0.00 99 1020.2
20260831102521 64 202 0.0 0.0 0.00 0.00 0.00 99 1020.1
20260831102016 64 199 0.0 0.0 0.00 0.00 0.00 99 1020.0
20260831101511 64 207 0.0 0.0 0.00 0.00 0.00 99 1020.1
20260831101007 64 200 0.0 0.0 0.00 0.00 0.00 99 1020.1
20260831100503 64 203 0.0 0.0 0.00 0.00 0.00 99 1019.9
20260831095958 64 201 0.0 0.0 0.00 0.00 0.00 99 1019.9
20260831095457 64 201 0.0 0.0 0.00 0.00 0.00 99 1019.8
20260831094952 64 201 0.0 0.0 0.00 0.00 0.00 99 1020.2
20260831094448 64 197 0.0 0.0 0.00 0.00 0.00 99 1019.8
20260831093944 64 202 0.0 0.0 0.00 0.00 0.00 99 1019.7
20260831093438 65 199 0.0 0.0 0.00 0.00 0.00 99 1019.8
20260831092935 65 195 0.0 0.0 0.00 0.00 0.00 99 1019.8
20260831092431 65 200 0.0 0.0 0.00 0.00 0.00 99 1019.9
20260831091926 65 198 0.0 0.0 0.00 0.00 0.00 99 1019.9
20260831091421 65 201 0.0 0.0 0.00 0.00 0.00 99 1019.9
20260831090916 65 202 0.0 0.0 0.00 0.00 0.00 99 1019.8
20260831090412 65 203 0.0 0.0 0.00 0.00 0.00 99 1019.9
20260831085908 65 201 0.0 0.0 0.00 0.00 0.00 99 1019.9
20260831085403 65 203 0.0 0.0 0.00 0.00 0.00 99 1019.9
20260831084902 65 200 0.0 0.0 0.00 0.00 0.00 99 1019.9
20260831084358 65 202 0.0 0.0 0.00 0.00 0.00 99 1019.7
20260831083854 65 199 0.0 0.0 0.00 0.00 0.00 99 1019.5
20260831083350 65 202 0.0 0.0 0.00 0.00 0.00 99 1019.5
20260831082848 65 197 0.0 0.0 0.00 0.00 0.00 99 1019.8
20260831082343 66 192 0.0 0.0 0.00 0.00 0.00 99 1019.7
20260831081839 65 198 0.0 0.0 0.00 0.00 0.00 99 1019.7
20260831081334 66 198 0.0 0.0 0.00 0.00 0.00 99 1019.8
20260831080830 65 198 0.0 0.0 0.00 0.00 0.00 99 1019.9
20260831080330 65 203 0.0 0.0 0.00 0.00 0.00 99 1019.8
20260831075826 66 201 0.0 0.0 0.00 0.00 0.00 99 1019.8
20260831075321 66 202 0.0 0.0 0.00 0.00 0.00 99 1019.7
20260831074816 66 192 0.0 0.0 0.00 0.00 0.00 99 1019.6
20260831074314 65 201 0.0 0.0 0.00 0.00 0.00 99 1019.5
20260831073811 65 201 0.0 0.0 0.00 0.00 0.00 99 1019.7
20260831073309 65 201 0.0 0.0 0.00 0.00 0.00 99 1019.7
20260831072804 65 194 0.0 0.0 0.00 0.00 0.00 99 1019.5
20260831072301 65 207 0.0 0.0 0.00 0.00 0.00 99 1019.7
20260831071756 65 199 0.0 0.0 0.00 0.00 0.00 99 1019.8
20260831071251 65 202 0.0 0.0 0.00 0.00 0.00 99 1019.7
20260831070750 66 199 0.0 0.0 0.00 0.00 0.00 99 1019.8
20260831070249 65 199 0.0 0.0 0.00 0.00 0.00 99 1019.9
20260831065748 65 198 0.0 0.0 0.00 0.00 0.00 99 1019.6
20260831065247 65 202 0.0 0.0 0.00 0.00 0.00 99 1019.5
20260831064742 66 190 0.0 0.0 0.00 0.00 0.00 99 1019.7
20260831064237 66 203 0.0 0.0 0.00 0.00 0.00 99 1019.6
20260831063733 66 202 0.0 0.0 0.00 0.00 0.00 99 1019.6
20260831063228 66 199 0.0 0.0 0.00 0.00 0.00 99 1019.5
20260831062728 66 198 0.0 0.0 0.00 0.00 0.00 99 1019.7
20260831062223 66 199 0.0 0.0 0.00 0.00 0.00 99 1019.7
20260831061721 66 199 0.0 0.0 0.00 0.00 0.00 99 1019.4
20260831061216 66 197 0.0 0.0 0.00 0.00 0.00 99 1019.8
20260831060712 67 199 0.0 0.0 0.00 0.00 0.00 99 1019.7
20260831060207 67 199 0.0 0.0 0.00 0.00 0.00 99 1019.8
20260831055706 67 198 0.0 0.0 0.00 0.00 0.00 99 1019.8
20260831055201 67 193 0.0 0.0 0.00 0.00 0.00 99 1019.8
20260831054656 67 203 0.0 0.0 0.00 0.00 0.00 99 1019.7
20260831054155 67 202 0.0 0.0 0.00 0.00 0.00 99 1019.5
20260831053650 67 202 0.0 0.0 0.00 0.00 0.00 99 1019.5
20260831053149 67 198 0.0 0.0 0.00 0.00 0.00 99 1019.5
20260831052648 67 198 0.0 0.0 0.00 0.00 0.00 99 1019.5
20260831052148 68 198 0.0 0.0 0.00 0.00 0.00 99 1019.4
20260831051645 68 197 0.0 0.0 0.00 0.00 0.00 99 1019.6
20260831051144 68 197 0.0 0.0 0.00 0.00 0.00 99 1019.4
20260831050639 68 200 0.0 0.0 0.00 0.00 0.00 99 1019.2
20260831050138 68 193 0.0 0.0 0.00 0.00 0.00 99 1019.4
20260831045638 68 197 0.0 0.0 0.00 0.00 0.00 99 1019.3
20260831045133 68 198 0.0 0.0 0.00 0.00 0.00 99 1019.6
20260831044628 68 180 0.0 0.0 0.00 0.00 0.00 99 1019.4
20260831044124 68 195 0.0 0.0 0.00 0.00 0.00 99 1019.5
20260831043620 68 199 0.0 0.0 0.00 0.00 0.00 99 1019.5
20260831043114 68 199 0.0 0.0 0.00 0.00 0.00 99 1019.3
20260831042614 68 197 0.0 0.0 0.00 0.00 0.00 99 1019.3
20260831042109 68 192 0.0 0.0 0.00 0.00 0.00 99 1019.3
20260831041603 69 206 0.0 0.0 0.00 0.00 0.00 99 1019.4
20260831041057 69 197 0.0 0.0 0.00 0.00 0.00 99 1019.3
20260831040552 69 193 0.0 0.0 0.00 0.00 0.00 99 1019.5
20260831040051 69 200 0.0 0.0 0.00 0.17 0.17 99 1019.4
20260831035543 69 177 0.0 0.0 0.00 0.17 0.17 99 1019.3
20260831035039 69 201 0.0 0.0 0.00 0.17 0.17 99 1019.4
20260831034538 69 200 0.0 0.0 0.00 0.17 0.17 99 1019.5
20260831034028 69 198 0.0 0.0 0.00 0.17 0.17 99 1019.6
20260831033523 69 199 0.0 0.0 0.00 0.17 0.17 99 1019.6
20260831033018 69 198 0.0 0.0 0.00 0.17 0.17 99 1019.6
20260831032518 69 199 0.0 0.0 0.00 0.17 0.17 99 1019.5
20260831032014 70 198 0.0 0.0 0.00 0.17 0.17 99 1019.6
20260831031513 70 198 0.0 0.0 0.00 0.17 0.17 99 1019.3
20260831031013 70 197 0.0 0.0 0.00 0.17 0.17 99 1019.5
20260831030512 70 197 0.0 0.0 0.00 0.17 0.17 99 1019.7
20260831030011 71 197 0.0 0.0 0.00 0.17 0.17 99 1019.7
20260831025509 71 197 0.0 0.0 0.07 0.17 0.17 99 1019.6
20260831025005 71 197 0.0 0.0 0.12 0.17 0.17 99 1019.8
20260831024501 71 196 0.0 0.0 0.05 0.16 0.16 99 1019.9
20260831024000 71 194 0.0 0.0 0.07 0.15 0.15 99 1020.1
20260831023458 71 198 0.0 0.0 0.07 0.15 0.15 99 1020.0
20260831022953 71 198 0.0 0.0 0.00 0.14 0.14 99 1020.0
20260831022452 71 198 0.0 0.0 0.00 0.14 0.14 99 1019.9